Regional Weather Roundup
Issued by NWS Cleveland, OH

Home | Current Version | Previous Version | Text Only | Print | Product List | Glossary Off
Versions: 1 2 3 4 5 6 7 8 9 10 11 12 13 14 15 16 17 18 19 20 21 22 23 24 25 26 27 28 29 30 31 32 33 34 35 36 37 38 39 40 41 42 43 44 45 46 47 48 49 50

000
ASUS41 KCLE 010910
RWRCLE
OHIO REGIONAL WEATHER ROUNDUP
NATIONAL WEATHER SERVICE WILMINGTON, OH
500 AM EDT SUN MAY 01 2016

NOTE: "FAIR" INDICATES FEW OR NO CLOUDS BELOW 12,000 FEET WITH NO
SIGNIFICANT WEATHER AND/OR OBSTRUCTIONS TO VISIBILITY.

OHZ001>008-015>018-024>027-034-035-043-044-011000-
   NORTHWEST OHIO

CITY           SKY/WX    TMP DP  RH WIND       PRES   REMARKS
DEFIANCE       CLOUDY    50  48  93 NE6       29.88S FOG
FINDLAY        CLOUDY    53  49  86 N7        29.85S FOG
TOLEDO EXPRESS CLOUDY    49  48  97 NE7       29.88S FOG
TOLEDO EXEC    CLOUDY    50  47  89 NE5       29.88F FOG
LIMA           CLOUDY    59  58  96 S6        29.84F FOG
$$

OHZ009>014-019>023-028>033-038-089-011000-
   NORTHEAST OHIO

CITY           SKY/WX    TMP DP  RH WIND       PRES   REMARKS
CLE-HOPKINS    CLOUDY    56  54  93 CALM      29.89F FOG
CLE-LAKEFRONT  CLOUDY    52  50  93 CALM      29.86F
CUY CO. ARPT   NOT AVBL
LORAIN-ELYRIA  CLOUDY    55  53  93 CALM      29.86F
ASHTABULA      CLOUDY    52  51  97 CALM      29.89F
AKRON-CANTON   CLOUDY    57  55  93 SW7       29.88F FOG
WOOSTER        CLOUDY    56  55  97 SW5       29.88F FOG
MANSFIELD      CLOUDY    58  58 100 S13       29.88R
YOUNGSTOWN     LGT RAIN  54  53  97 SE10      29.87F FOG
$$

OHZ042-051>053-060>062-070>072-077>081-011000-
  SOUTHWEST OHIO

CITY           SKY/WX    TMP DP  RH WIND       PRES   REMARKS
CINC-COVINGTON MOCLDY    60  60 100 S6        29.89S FOG
CINC-LUNKEN    FAIR      59  59 100 CALM      29.89S FOG
HAMILTON       FAIR      61  60  97 CALM      29.89S
DAYTON         MOCLDY    60  59  96 SW9       29.88S
WRIGHT-PAT AFB CLOUDY    61  61 100 SW6       29.87S FOG
DAYTON GENERAL CLOUDY    60  58  92 SW3       29.88R FOG
WILMINGTON     MOCLDY    60  59  96 SW12      29.88S
$$

OHZ036-037-039>041-045>050-054>059-063>069-073>076-082>088-011000-
  CENTRAL AND SOUTHEAST OHIO

CITY           SKY/WX    TMP DP  RH WIND       PRES   REMARKS
COLUMBUS       CLOUDY    57  57 100 S6        29.88F FOG
OSU AIRPORT    CLOUDY    59  58  96 S5        29.87F FOG
BOLTON FIELD   CLOUDY    58  58 100 S8        29.89R
RICKENBACK AFB MOCLDY    58  58  98 S8        29.88S
NEWARK         CLOUDY    62  58  86 S5        29.88F
MARION         CLOUDY    58  57  97 S7        29.88R FOG
LANCASTER      CLOUDY    61  58  90 S7        29.89F
ZANESVILLE     CLOUDY    63  59  87 S9        29.91S
NEW PHILLY     LGT RAIN  60  58  92 VRB5      29.90S
$$




USA.gov is the U.S. government's official web portal to all federal, state and local government web resources and services.